Theta_e
314 314 314 314 313 313 313 313 312 311 309 309 307 307 304 305 306 315 319 319 316 306 300 307 305 301 302 307 307 308 307 306 308 307 306 303 308 303 302 301 300 299 298 297 297 295 294 297 296 296 299 299 302 302 301 302 302 302 298 300 301 318 302 295 295 296 299 301 301 304 305 303 300 299 300 300 300 300 300 299 296 294 295 296 296 294 294
314 314 314 313 313 313 314 313 312 311 309 307 307 305 304 306 307 312 318 320 313 304 300 299 299 301 306 307 307 310 308 306 304 304 304 305 303 302 302 304 305 304 302 300 298 298 298 301 298 300 299 302 303 303 300 303 301 302 300 297 308 299 296 294 291 288 293 295 299 297 301 299 297 300 298 300 301 301 300 297 297 298 294 295 292 290 293
314 314 314 313 313 313 314 314 312 311 310 309 306 304 304 306 310 312 314 319 312 303 301 302 300 303 303 304 305 307 305 306 307 306 305 305 304 303 302 304 304 304 304 304 304 305 302 301 304 302 302 302 308 306 301 303 302 304 313 329 307 299 298 293 289 289 289 287 287 291 294 296 298 299 300 302 301 299 298 298 297 291 295 298 294 292 297
314 314 313 313 313 314 314 313 312 311 310 308 310 306 307 308 303 308 307 310 309 307 308 306 303 302 303 304 305 305 304 308 308 306 305 305 306 306 307 306 305 304 306 303 303 304 305 301 302 301 302 302 305 305 307 312 314 332 334 320 306 299 301 296 293 293 293 295 295 299 307 296 296 299 300 300 299 299 298 294 292 293 292 297 296 297 299
314 314 314 314 314 314 313 313 312 311 310 309 309 307 307 308 302 304 302 307 307 304 306 306 306 304 307 301 304 303 304 306 307 308 306 308 305 308 307 306 304 304 304 302 303 303 303 304 301 301 302 303 305 305 307 306 323 333 322 319 302 298 298 299 299 299 299 301 301 300 307 298 297 297 300 300 299 299 297 295 293 296 298 293 299 300 303
314 315 315 315 315 315 314 312 311 310 309 309 309 312 310 303 308 308 310 302 298 304 304 308 307 309 310 303 307 303 303 304 303 307 309 308 308 304 307 306 305 305 303 302 301 302 301 301 301 302 303 301 304 304 305 304 314 315 305 311 302 297 297 298 301 300 302 301 301 300 299 299 300 300 299 301 302 299 298 296 296 299 296 295 297 301 304
315 315 316 316 316 316 315 313 311 309 307 308 311 307 308 309 308 308 312 305 305 305 308 312 311 308 308 305 307 303 302 302 304 305 306 306 307 304 301 303 305 305 305 302 300 302 296 300 303 302 302 302 301 301 302 305 304 305 302 302 302 298 295 298 298 299 300 300 300 300 299 302 303 304 303 303 301 297 297 297 299 300 301 301 302 304 308
315 315 316 316 316 315 315 314 311 309 308 309 310 308 304 304 304 304 308 308 306 308 308 310 307 303 311 302 305 305 302 302 304 306 304 302 305 306 304 303 304 305 305 305 301 304 302 303 302 305 303 300 303 302 302 301 303 303 303 305 303 300 298 312 300 298 300 300 302 301 301 303 303 305 306 306 304 303 304 303 308 309 305 306 306 306 307
315 315 315 316 316 315 316 315 312 310 309 309 308 307 309 308 310 310 304 302 307 313 309 307 305 300 304 303 306 308 304 304 304 305 307 304 304 305 304 306 305 305 304 304 305 305 304 305 306 307 303 301 304 302 301 304 304 303 303 302 302 300 299 298 295 296 294 298 299 299 299 301 303 304 306 305 304 302 305 306 309 304 305 306 306 305 306
315 315 315 316 316 316 316 315 313 312 311 309 307 306 311 310 311 312 307 302 310 305 308 306 301 300 304 308 307 307 305 307 306 304 307 308 308 306 306 307 303 303 304 303 305 307 306 306 306 305 305 305 305 305 305 302 305 302 304 305 302 299 297 296 294 293 292 296 299 299 298 299 298 301 304 305 307 309 308 312 313 312 310 305 303 306 308
314 315 315 316 316 315 315 315 314 313 311 306 305 307 310 308 307 308 307 299 297 303 303 303 303 308 308 309 306 308 306 307 306 300 304 308 309 310 308 306 302 302 304 307 309 309 310 309 308 306 305 306 304 304 305 307 305 302 301 301 303 302 297 296 298 295 293 297 299 300 297 293 294 303 308 310 309 309 308 308 309 312 312 309 308 311 313
314 314 314 315 316 315 315 315 315 314 312 310 309 308 311 312 310 307 298 295 297 302 301 303 306 308 308 309 307 306 305 306 305 307 306 307 308 309 309 307 303 303 308 312 312 310 308 309 308 308 306 305 305 305 305 308 304 311 303 303 299 305 298 296 297 294 293 295 296 295 289 292 303 305 308 311 310 311 310 310 311 312 314 315 316 316 317
315 314 314 315 316 315 315 315 314 314 313 312 310 306 308 312 309 306 301 297 296 300 300 304 308 309 309 309 306 306 306 307 307 311 307 307 307 308 309 307 307 308 312 311 309 306 304 303 301 302 301 301 301 304 305 305 304 304 303 303 299 298 297 297 298 294 294 291 290 287 292 301 304 306 310 315 311 312 311 310 313 312 313 315 314 316 318
314 314 314 315 315 316 315 315 315 315 313 311 309 308 309 311 306 303 299 294 298 300 305 304 304 306 308 308 306 306 306 307 306 306 306 307 307 307 309 314 311 313 313 309 305 301 301 297 294 295 297 295 294 299 304 302 304 304 304 303 303 300 299 297 295 298 294 292 291 292 297 301 303 305 309 310 308 309 307 304 309 313 313 316 317 319 321
313 313 314 315 316 316 316 315 315 315 314 311 311 309 309 310 310 308 305 299 297 300 301 301 303 306 308 308 305 303 303 303 304 303 306 307 308 310 310 312 314 313 309 307 302 299 297 294 291 290 291 290 290 294 298 300 303 304 304 303 302 302 302 297 297 296 292 290 290 291 293 292 296 302 308 314 314 314 311 307 306 312 315 317 321 319 321
313 313 314 315 316 315 315 315 314 314 314 312 311 309 309 310 309 309 305 298 296 298 301 308 311 309 305 305 306 305 303 302 303 299 300 304 307 310 311 312 314 313 308 304 301 299 297 294 292 290 292 294 294 296 295 299 302 306 304 304 303 302 301 298 298 294 294 291 288 287 289 292 299 305 310 312 314 314 311 305 301 310 313 318 322 322 322
313 314 314 315 316 315 315 315 314 314 314 312 309 308 307 309 310 308 304 301 301 300 304 310 311 309 302 301 303 302 304 302 303 299 298 302 305 306 309 312 313 311 309 301 300 296 294 294 292 292 293 295 296 296 297 295 297 299 306 304 303 301 300 295 296 296 295 290 289 290 293 300 309 309 311 314 314 312 306 297 297 307 313 320 324 324 324
314 314 314 315 316 315 315 315 315 314 314 311 310 307 307 309 310 310 306 300 300 300 302 311 307 301 301 302 301 305 306 303 303 301 302 303 305 304 306 308 307 310 313 307 304 293 294 292 294 292 293 298 301 301 293 299 296 297 298 298 296 298 299 296 293 293 299 297 291 294 300 307 311 312 314 315 314 307 297 292 301 311 320 325 325 325 325
314 314 313 314 316 315 314 314 315 314 314 311 311 310 308 310 313 310 302 299 298 298 301 309 312 310 311 312 308 308 306 306 304 302 299 298 303 306 307 307 310 303 307 301 298 296 294 297 298 293 294 297 300 297 300 297 296 300 300 296 295 297 299 301 296 295 294 292 292 294 297 304 310 314 315 315 310 300 295 303 310 315 324 325 326 326 325
313 313 313 314 314 314 314 314 314 314 314 313 310 305 308 310 312 314 307 300 298 299 304 306 310 307 311 308 302 299 301 302 301 299 297 298 302 304 302 300 304 305 303 302 298 300 297 298 298 299 294 295 297 304 297 297 301 299 299 300 298 299 296 296 296 298 297 293 293 294 292 306 312 314 312 315 306 303 306 315 320 323 325 326 326 326 326
314 313 312 313 313 314 314 314 314 314 314 314 312 305 306 310 310 312 312 302 298 298 298 305 311 309 310 308 308 306 304 303 302 301 300 301 305 300 292 296 299 301 301 301 299 300 298 297 298 300 301 301 302 299 295 294 296 302 303 301 302 305 297 293 294 300 295 291 292 293 300 306 313 313 308 313 315 317 316 319 319 323 324 326 325 326 326
314 313 312 313 313 313 313 313 314 314 314 314 312 304 300 306 308 312 314 309 301 300 299 303 310 310 313 314 313 312 310 309 308 309 304 301 300 302 301 303 303 302 305 303 300 301 301 301 300 297 298 299 297 297 297 292 292 298 303 303 295 303 303 302 299 304 299 299 299 305 308 310 314 319 319 321 324 323 321 323 323 324 325 326 327 327 328
314 314 313 313 313 313 313 313 314 314 314 315 312 303 300 303 305 310 308 303 303 306 309 308 310 312 314 315 317 317 315 315 311 310 308 303 298 300 301 302 302 307 310 307 303 300 301 298 300 299 297 299 300 298 295 295 296 297 297 301 302 307 308 307 306 306 309 311 311 313 310 310 315 323 324 325 327 329 329 328 327 327 328 329 328 329 330
313 314 314 313 313 312 312 313 314 314 314 314 313 307 304 303 305 308 306 304 299 299 303 306 304 304 306 309 313 317 318 315 316 312 310 307 299 298 300 304 306 305 303 305 306 305 300 301 302 300 298 299 297 293 295 293 297 300 299 298 301 303 307 305 303 306 303 299 309 309 309 310 312 318 324 324 325 326 329 329 328 329 330 331 331 331 331
313 313 314 314 313 312 312 313 314 314 314 314 313 311 308 304 303 305 303 299 301 297 297 299 301 308 313 316 316 313 315 317 324 318 312 307 303 300 302 308 309 305 304 305 306 302 301 300 299 297 296 299 300 295 297 296 295 301 295 295 298 302 312 304 306 305 302 304 309 313 314 314 314 313 317 319 321 321 323 326 329 330 332 333 333 334 333
312 312 314 314 313 312 312 313 314 314 314 314 312 307 303 302 303 306 307 309 305 303 297 294 303 311 313 311 310 313 314 317 314 316 311 309 306 307 306 309 307 307 308 309 304 304 300 300 297 296 295 298 302 297 296 298 299 300 298 297 301 304 311 304 306 305 307 309 309 310 313 313 313 313 313 315 319 320 319 321 323 327 330 331 332 335 335
312 312 313 314 313 312 312 313 314 314 314 313 311 306 305 306 307 305 304 304 298 297 294 295 300 305 309 308 312 314 316 311 309 308 308 308 307 306 305 304 304 302 302 301 304 302 299 298 299 299 297 299 302 299 299 299 299 298 297 298 304 303 300 304 306 303 303 304 307 311 306 306 310 311 312 315 319 320 318 318 318 318 320 326 328 329 331
312 312 313 313 313 313 313 313 313 314 313 313 310 307 306 305 306 308 307 304 303 295 294 295 297 303 309 305 314 315 313 317 310 306 304 306 305 304 303 302 300 301 301 301 300 298 296 299 298 300 301 301 300 298 301 299 300 296 297 296 303 302 302 301 301 301 302 307 311 313 313 311 313 314 312 312 314 315 316 316 317 318 320 325 327 326 324
312 313 313 313 313 312 313 313 313 313 313 311 306 304 305 306 307 308 310 310 303 298 299 300 303 300 300 304 311 309 310 309 306 305 303 305 306 305 303 302 302 299 300 300 299 297 297 298 300 300 301 303 300 297 299 297 292 293 297 301 304 304 305 305 305 303 306 308 310 313 312 310 310 312 313 313 314 316 318 318 317 318 320 322 323 322 321
312 313 313 313 312 312 313 313 313 313 312 307 301 304 304 308 307 306 310 311 305 304 298 294 294 299 304 307 306 308 311 312 304 303 303 301 302 303 302 302 306 309 302 300 299 298 296 298 301 302 304 308 301 299 297 294 295 298 301 302 305 306 306 309 307 308 307 308 309 309 309 310 313 315 316 316 318 318 317 319 323 320 319 320 319 320 320
312 313 313 313 312 313 313 313 313 313 311 304 300 300 298 296 303 310 311 310 306 304 296 295 294 299 301 307 308 306 308 313 304 303 304 302 301 303 304 305 305 309 300 299 299 298 298 296 297 300 302 309 306 298 295 294 293 294 302 304 305 306 306 307 310 310 312 312 313 313 313 313 314 313 315 316 316 316 316 318 322 329 326 321 319 320 320
313 313 313 313 313 313 313 313 313 313 309 304 298 299 298 301 306 308 311 311 307 304 299 294 294 294 295 302 306 315 311 309 310 308 304 308 304 304 304 303 303 304 304 296 300 299 299 297 299 300 299 309 308 296 295 293 293 297 302 303 307 307 308 310 311 312 314 313 311 311 310 311 313 310 311 316 317 318 317 318 319 319 325 322 321 321 321
313 313 313 313 313 313 313 313 313 312 307 308 312 313 313 313 314 314 313 307 303 299 295 293 293 295 294 299 304 304 307 303 299 300 304 306 304 302 302 307 302 303 321 304 298 298 299 299 300 299 300 304 301 300 295 294 296 300 302 309 306 308 311 313 313 312 312 312 311 306 306 309 313 316 316 316 317 318 317 318 318 319 319 319 319 319 320
313 313 313 313 313 313 313 313 313 312 310 305 302 303 306 313 312 314 308 304 300 300 299 296 293 293 293 300 299 302 305 298 297 298 297 304 307 299 300 304 302 301 301 300 298 299 298 303 299 297 300 299 299 297 295 296 298 301 303 305 308 310 310 311 311 312 313 313 313 311 311 313 314 315 316 316 316 318 320 318 318 316 316 316 317 317 318
314 313 313 313 313 313 312 311 303 303 298 298 297 303 304 316 314 315 312 303 298 297 296 295 294 290 293 293 291 296 303 300 299 298 298 300 309 300 301 298 297 298 300 303 297 296 296 299 299 298 294 296 296 293 293 295 297 299 304 307 309 309 310 309 310 312 313 314 314 314 315 315 314 314 314 315 316 316 317 317 317 316 315 314 315 316 317
313 313 312 312 312 311 308 307 304 303 300 302 306 315 319 317 314 306 304 304 304 295 292 292 293 292 289 288 291 300 307 298 300 300 300 301 301 303 302 297 297 297 304 298 295 295 296 304 301 294 294 294 294 295 294 297 299 302 304 306 309 308 308 309 310 313 312 314 314 315 315 314 314 312 312 314 314 314 314 315 315 315 314 314 315 316 317
313 312 312 311 305 305 297 302 311 306 304 308 313 320 319 317 312 310 308 305 306 306 296 292 292 292 293 294 295 297 300 295 297 296 297 296 295 301 295 294 293 303 299 293 294 296 296 308 295 293 293 292 295 297 299 300 300 304 306 307 311 310 310 312 313 311 311 311 312 311 311 312 312 311 311 313 313 315 315 314 314 314 314 314 315 316 316
312 310 303 302 297 295 296 299 304 308 317 317 318 308 303 305 296 297 300 296 301 308 298 294 291 292 295 294 296 300 299 294 297 296 296 300 296 297 298 296 295 304 292 292 294 300 298 296 295 293 292 293 297 299 304 306 305 306 309 311 311 311 310 310 309 307 307 306 307 309 310 309 310 310 311 312 313 314 313 313 314 315 315 316 316 317 318
307 304 300 297 296 294 296 301 310 317 312 313 310 303 298 295 291 292 293 294 297 294 295 294 292 292 295 293 295 301 300 296 292 292 293 296 298 293 298 294 298 298 289 291 296 301 296 290 292 293 293 293 303 306 308 308 310 311 313 312 312 311 312 311 311 309 308 308 309 311 311 310 310 311 311 311 313 313 313 314 315 316 316 315 317 321 318
301 298 299 298 295 297 309 310 314 310 312 302 298 297 296 296 293 291 292 291 291 294 296 292 294 294 298 297 297 298 304 297 293 293 294 295 301 294 298 294 295 294 288 287 290 301 293 290 288 292 290 294 303 308 306 310 310 311 311 312 313 313 313 313 313 312 312 312 312 314 312 312 313 313 313 313 314 312 313 314 315 315 315 316 322 319 316
306 304 302 300 302 301 304 307 306 301 300 296 293 293 292 291 293 294 296 288 287 290 297 294 296 296 301 297 297 295 301 309 300 296 292 293 299 301 291 291 297 290 287 286 294 296 291 291 288 289 291 295 300 307 308 310 310 312 312 312 312 311 312 312 313 314 313 313 313 313 313 316 315 314 314 315 315 313 313 314 315 316 317 315 315 316 317
305 303 303 304 305 306 305 301 296 295 294 295 291 288 289 291 294 294 293 289 289 291 295 297 295 293 294 299 296 297 299 302 301 302 293 293 300 294 291 293 295 288 286 289 297 291 290 289 286 287 291 296 301 305 307 308 312 309 310 311 315 312 311 311 312 313 313 312 312 312 311 312 312 313 314 314 314 313 314 315 316 315 315 315 318 317 317
311 310 307 304 302 300 299 294 293 290 284 287 282 283 286 287 289 290 291 295 297 296 296 302 301 300 302 302 299 301 298 304 299 296 293 292 295 294 290 287 288 287 289 296 292 287 288 286 287 289 293 302 305 307 306 307 310 311 312 312 311 312 312 311 312 312 312 313 311 311 312 312 312 313 316 316 315 314 314 316 317 316 315 315 315 315 317
308 308 305 302 299 297 293 284 296 293 289 283 282 281 283 287 288 289 291 291 293 294 295 297 296 296 294 298 297 297 299 301 301 293 293 295 292 290 288 288 287 289 295 290 287 288 288 288 290 290 296 302 308 307 306 309 309 310 311 313 312 311 311 311 310 311 311 311 311 312 313 312 313 313 313 313 315 314 313 313 315 318 317 316 315 315 316
299 296 293 291 289 296 292 283 291 287 282 285 289 287 289 287 288 289 289 294 296 295 298 298 297 298 298 299 298 298 298 296 299 293 292 295 290 288 289 288 290 292 290 287 286 286 288 290 292 296 300 303 306 307 308 308 308 309 310 310 310 310 310 310 310 310 309 309 310 312 311 311 312 311 311 312 312 313 313 312 314 315 313 313 314 314 315
295 289 285 286 287 289 285 281 281 284 288 292 291 290 290 291 291 293 295 298 296 296 297 299 299 301 297 299 294 294 295 295 294 294 296 290 289 287 290 295 292 288 287 285 286 285 286 288 290 297 304 307 307 307 307 308 309 308 308 308 309 311 310 309 309 308 309 309 309 310 310 311 311 310 310 311 311 312 312 312 313 313 313 313 314 314 315
297 299 291 288 284 283 289 286 286 288 293 293 292 292 293 294 296 296 297 298 296 297 297 299 299 299 295 296 296 294 294 294 292 296 292 290 288 290 298 292 287 284 284 284 283 283 286 290 293 295 299 304 306 306 307 308 309 309 308 307 310 309 308 308 308 308 308 308 310 310 310 309 311 310 311 311 311 311 313 315 314 314 314 313 314 315 315
291 298 294 287 284 283 287 288 291 292 295 295 294 294 295 296 294 294 297 298 298 298 299 299 297 296 295 296 293 291 291 292 291 290 295 293 296 289 284 286 285 286 286 284 284 287 289 291 295 298 300 304 306 307 307 308 308 308 308 308 308 306 306 306 307 308 308 308 309 309 309 310 310 311 311 311 312 312 313 313 313 313 313 314 314 314 314
296 290 287 288 291 289 289 293 291 290 291 292 294 294 295 294 294 295 298 298 296 298 298 296 297 296 292 297 291 292 291 292 288 287 294 290 288 284 285 283 285 284 289 291 290 290 293 296 300 301 301 304 306 307 308 309 309 309 309 308 307 307 307 307 307 309 310 311 310 310 310 311 311 310 311 311 311 311 312 312 311 311 312 313 313 313 314
291 289 295 293 291 289 291 290 288 288 291 293 292 293 294 293 294 296 298 298 297 297 298 300 298 292 291 294 286 285 287 287 289 290 287 286 287 287 286 283 284 286 285 288 292 294 295 296 298 300 302 304 308 308 307 306 311 313 309 308 308 307 308 308 309 309 309 309 310 309 310 310 309 309 309 310 311 312 311 311 311 312 312 313 313 313 313
294 292 291 294 291 289 292 289 288 288 291 292 291 293 293 294 293 295 299 297 297 292 292 292 288 288 287 285 284 283 287 289 290 288 287 286 288 287 286 285 286 288 290 292 295 295 296 298 299 300 302 303 304 306 306 308 309 310 309 308 307 307 308 308 309 309 310 310 310 315 312 310 311 310 311 312 311 310 310 311 313 313 312 313 314 313 313
286 287 288 292 296 294 294 294 293 293 293 294 292 293 295 294 295 297 299 296 294 291 291 291 290 285 283 284 286 287 291 289 286 287 286 286 289 287 284 286 288 290 292 292 294 297 302 302 301 307 303 305 310 306 306 307 308 308 307 307 307 307 308 308 309 309 310 310 309 309 309 310 310 311 311 312 311 310 309 309 312 313 313 313 313 313 313
Wind_Speed
20 21 21 21 22 23 23 23 23 24 24 7 6 4 2 6 2 2 3 4 1 3 1 1 0 2 5 4 6 5 3 4 5 3 1 1 5 1 3 4 5 4 2 2 3 4 1 4 4 3 3 3 9 4 6 8 8 5 1 4 2 3 1 1 5 7 8 7 3 3 2 4 3 2 2 2 1 5 6 4 4 3 0 0 0 1 5
20 21 21 22 22 22 23 23 23 22 20 6 6 3 4 2 2 3 2 3 3 2 1 2 3 5 6 3 8 4 3 1 4 1 3 1 0 1 1 2 1 1 2 3 4 2 2 2 4 1 1 1 3 5 8 11 4 5 5 5 5 3 2 2 2 4 7 6 7 3 3 3 2 1 2 2 0 2 1 4 1 1 6 5 4 5 3
20 21 21 21 22 22 22 23 23 22 20 7 2 2 1 3 0 1 1 1 1 1 2 0 3 4 7 6 8 8 1 5 7 3 4 2 2 0 3 0 0 4 3 4 3 2 1 1 1 1 1 1 1 7 8 7 5 4 4 2 7 1 3 4 1 2 1 2 2 3 5 3 2 1 1 1 2 1 2 1 1 2 2 4 2 5 9
20 20 20 21 22 22 22 23 24 23 20 10 1 0 1 0 2 2 2 1 0 2 1 2 2 5 4 5 4 2 5 4 3 3 1 3 1 4 0 2 4 3 5 5 4 6 5 4 0 2 1 2 1 4 3 4 1 3 7 6 6 2 1 3 5 5 4 4 5 4 0 2 3 5 1 3 4 1 3 4 4 5 3 4 6 4 2
19 19 20 21 21 22 22 23 24 24 20 8 2 1 1 0 3 1 0 2 1 5 3 4 1 2 1 1 2 6 5 3 5 4 2 5 3 2 6 2 3 2 6 3 4 3 2 6 3 4 1 2 2 3 2 6 12 6 6 3 4 2 1 3 2 3 6 6 3 1 2 2 2 3 7 1 3 3 7 6 4 5 8 4 5 5 2
20 21 22 21 22 22 23 23 24 25 22 5 1 1 1 1 1 1 1 1 1 1 2 1 3 5 1 3 1 4 5 7 5 5 2 1 4 3 6 9 5 1 3 3 4 3 3 4 3 5 1 2 7 5 6 6 7 5 2 2 1 2 1 1 2 3 4 3 2 2 2 3 1 2 4 7 5 1 7 6 4 7 4 9 4 5 3
20 21 22 22 22 22 23 23 25 25 23 2 0 2 3 3 0 1 1 1 2 3 3 3 3 6 2 2 3 6 7 6 3 0 6 5 6 4 4 5 7 5 4 4 3 1 3 4 2 0 3 2 3 3 4 1 7 6 2 3 1 3 2 1 1 3 4 1 1 2 4 1 2 5 5 4 3 4 6 3 2 8 2 2 3 5 1
20 21 22 23 21 21 22 23 24 26 25 4 3 5 1 3 2 0 4 1 0 3 2 2 2 1 5 2 4 2 5 5 8 4 5 2 4 3 8 4 6 6 6 5 5 1 4 4 2 1 1 2 1 0 1 2 3 3 1 0 2 2 1 2 0 1 2 4 3 1 2 3 5 6 10 12 9 3 2 0 0 4 4 3 5 4 4
19 20 21 21 20 21 21 22 22 25 22 6 6 3 3 2 1 1 1 1 3 2 2 2 2 3 6 5 4 3 7 4 4 2 2 4 1 2 3 0 3 4 6 7 3 2 2 2 0 2 2 1 2 1 2 2 3 4 3 2 2 3 0 2 2 1 3 2 7 7 2 2 6 10 12 13 10 6 5 2 3 3 5 3 4 6 3
19 20 19 19 19 19 20 20 20 21 17 5 3 4 3 1 2 1 0 1 2 2 3 2 1 3 1 2 3 1 5 5 2 1 4 4 4 2 2 1 6 4 8 6 4 5 4 6 6 3 5 2 2 2 2 5 0 1 0 0 0 1 1 1 2 1 1 4 1 5 2 2 4 8 7 5 3 2 2 1 6 4 1 4 6 1 2
19 18 18 17 18 18 19 19 18 20 13 7 5 3 4 5 4 4 2 1 2 3 2 4 4 0 2 5 3 2 2 7 5 3 1 4 6 6 3 2 2 2 2 2 4 4 8 6 4 0 2 1 3 2 1 1 1 3 2 1 0 1 2 1 1 1 3 6 8 2 5 4 1 4 0 1 2 3 3 4 4 7 6 1 2 1 3
18 18 18 17 17 17 18 18 17 17 12 7 3 3 1 2 1 1 2 2 1 2 2 0 1 2 3 6 3 2 5 7 5 2 2 1 2 4 5 6 4 2 1 4 7 8 3 0 1 1 1 3 1 1 1 1 3 2 3 2 3 2 2 1 1 1 2 6 5 6 3 3 4 5 3 3 3 4 3 4 8 8 7 4 5 6 7
18 18 18 18 17 16 17 17 16 16 14 8 3 2 2 3 1 1 2 2 1 2 2 0 2 2 2 5 5 3 4 4 3 5 0 3 4 5 2 2 2 3 5 10 8 4 2 2 3 1 2 7 6 5 6 10 5 4 0 1 4 3 4 2 1 2 1 2 3 3 2 2 5 6 5 2 2 0 2 9 10 9 6 2 3 4 5
17 18 17 18 17 15 16 16 16 17 16 10 4 2 3 3 2 3 2 1 0 2 2 3 4 6 7 5 3 6 3 6 4 1 2 2 1 3 2 1 3 7 8 1 3 2 1 5 1 5 4 7 4 2 1 4 1 3 7 4 3 7 3 3 1 0 1 1 0 1 3 3 3 3 3 3 2 3 2 4 4 4 4 4 4 8 8
17 17 16 17 16 15 15 16 16 17 16 14 3 2 3 2 1 0 1 1 1 1 1 1 2 3 4 4 3 5 5 4 6 3 3 2 0 1 2 5 7 7 2 1 3 6 3 2 3 3 4 4 1 2 4 2 4 4 3 3 2 1 3 4 3 2 3 3 2 2 1 1 4 5 4 1 1 2 3 3 3 5 7 4 4 4 6
16 16 15 16 16 13 15 15 15 16 16 15 3 3 4 2 2 0 0 1 1 1 1 1 0 1 1 3 2 3 1 2 2 2 6 5 2 7 2 6 8 4 2 6 2 3 2 3 1 2 1 1 1 1 2 4 5 4 3 5 6 6 5 4 6 3 2 2 2 2 3 4 4 5 6 5 1 2 4 4 2 3 3 5 3 5 4
15 15 15 16 16 14 14 14 15 16 15 15 7 4 3 1 2 1 1 1 1 1 2 2 0 1 0 3 3 2 1 1 1 1 2 4 4 4 11 9 5 5 6 4 6 3 3 4 2 1 1 1 0 1 2 2 4 7 12 5 9 7 4 3 3 3 2 6 1 1 3 0 1 2 4 5 2 2 3 1 1 2 4 4 4 6 6
15 15 15 15 15 14 14 14 16 16 16 16 7 2 3 3 2 0 2 2 1 3 2 2 2 2 2 1 0 2 1 2 3 1 1 2 2 3 5 6 9 5 2 3 1 5 2 2 1 1 1 1 0 0 0 0 1 1 4 4 3 4 3 5 2 2 1 5 0 1 2 3 3 4 7 7 1 2 4 3 3 1 1 3 4 5 4
14 14 13 15 15 15 15 16 16 16 16 17 10 0 2 2 5 1 3 2 2 1 2 3 1 0 1 0 1 1 0 0 0 0 3 3 1 2 3 3 0 4 7 2 5 3 1 0 0 0 1 2 2 0 1 1 1 2 1 4 5 3 1 1 3 3 1 2 5 2 4 4 2 8 7 4 1 1 3 2 1 2 3 3 6 6 6
13 13 14 14 14 15 15 16 17 17 17 16 8 1 6 4 3 5 3 0 1 2 5 1 0 0 1 1 2 2 4 4 1 3 2 0 3 6 1 2 2 1 3 3 2 0 2 1 1 0 1 0 1 1 0 1 0 0 1 1 2 2 1 0 1 0 1 3 4 1 2 1 4 11 4 3 1 2 2 2 2 0 4 7 6 6 5
13 13 13 13 14 14 15 16 17 17 16 16 10 3 5 1 2 3 2 2 0 2 5 1 0 2 0 2 3 2 1 1 1 1 2 3 2 1 1 2 3 1 1 2 1 0 1 0 0 0 0 0 1 1 0 1 2 3 1 1 1 1 1 1 1 2 1 1 1 2 1 5 6 2 1 1 0 2 1 2 3 3 3 6 5 5 3
12 12 12 12 13 13 14 15 16 16 16 15 12 1 1 4 2 1 3 1 2 5 4 2 1 5 8 8 8 7 8 7 4 1 1 2 2 1 1 1 0 1 1 2 2 1 1 0 0 1 1 1 2 1 1 1 1 3 1 1 2 3 0 2 0 0 1 1 2 3 3 4 4 0 1 0 2 3 1 4 4 5 4 1 4 4 4
12 13 12 12 12 13 13 14 15 15 16 14 10 2 3 6 6 4 1 1 3 3 3 3 2 4 4 5 7 9 9 7 3 1 3 0 3 1 1 1 1 0 0 0 1 3 1 3 0 2 1 0 1 0 1 1 0 2 2 2 1 1 1 1 4 0 1 1 1 2 3 4 6 4 4 5 6 4 4 6 8 4 3 3 6 4 7
12 12 12 12 11 12 13 14 14 14 14 13 8 3 4 4 6 6 3 2 2 4 3 0 1 2 1 2 2 1 1 2 6 4 2 2 1 2 2 2 1 1 1 1 3 0 2 2 1 1 1 1 2 1 0 2 1 0 1 4 2 3 1 2 2 1 2 1 6 5 3 4 6 5 5 6 5 5 4 6 5 3 3 5 4 5 4
12 12 12 12 11 12 13 14 14 14 13 13 10 3 3 4 1 2 3 3 4 3 1 4 2 2 2 5 4 2 4 3 2 4 3 2 4 3 2 0 1 1 0 0 2 4 2 1 0 0 1 1 1 1 1 1 1 0 2 2 3 2 0 2 1 1 4 2 2 1 2 2 2 4 7 7 8 7 6 4 3 3 3 4 4 4 4
12 12 11 12 11 11 12 13 13 13 13 14 11 4 2 4 2 1 1 0 1 1 1 1 1 2 4 4 1 1 2 1 3 4 3 3 2 2 4 1 1 3 2 2 1 1 2 2 2 1 2 0 0 1 1 2 0 0 1 2 2 3 4 0 1 2 0 1 3 5 2 5 7 6 5 4 4 4 6 7 7 6 6 5 6 7 5
11 12 12 11 12 11 11 13 13 12 13 13 8 3 4 4 3 0 1 1 0 1 2 2 5 7 6 6 4 3 2 1 1 3 2 2 2 3 3 2 1 3 3 2 3 3 3 2 1 1 1 0 0 0 1 1 0 0 0 4 2 1 0 0 2 4 2 5 5 2 2 1 2 5 5 5 5 3 6 6 8 8 7 6 7 7 6
11 11 12 11 11 11 11 13 13 13 13 14 7 5 3 2 1 2 1 3 1 1 1 3 4 8 5 3 4 3 7 3 1 3 3 1 3 3 3 3 3 1 1 1 1 2 1 1 1 1 0 2 1 1 0 0 1 1 1 2 0 0 2 3 2 6 4 6 5 3 5 4 1 3 4 4 6 5 8 7 5 5 4 3 6 7 8
10 11 12 12 11 12 12 13 13 12 13 11 7 3 1 4 3 2 2 1 2 2 1 4 4 3 1 1 5 5 3 1 2 2 2 2 2 2 3 3 1 3 2 3 2 2 1 1 1 1 0 1 2 1 1 0 1 1 3 2 1 3 1 4 4 4 3 3 2 5 2 3 2 1 4 5 4 3 7 5 5 5 5 5 8 6 6
10 11 11 11 11 12 13 13 13 11 10 7 3 1 1 1 1 1 2 4 2 2 1 2 1 2 3 2 2 2 2 3 2 3 3 2 1 1 3 3 1 1 2 1 2 0 1 0 1 2 2 1 0 1 1 1 1 1 3 3 4 3 2 3 3 3 0 1 2 3 6 6 3 4 4 4 4 4 6 5 4 5 5 4 8 6 5
10 11 12 11 12 12 13 13 11 9 7 3 1 1 2 1 2 1 2 4 3 1 1 1 4 5 4 1 0 2 2 2 1 2 1 1 1 1 0 2 1 1 1 1 1 0 1 0 0 1 2 0 2 1 2 2 0 2 2 2 2 3 3 3 1 1 4 5 5 4 4 2 0 2 8 7 7 4 3 3 4 5 4 6 7 5 6
11 12 12 11 11 12 12 12 11 8 3 1 1 1 2 2 2 3 4 4 1 0 0 1 2 1 2 3 2 1 0 0 1 1 1 0 0 1 2 1 1 0 1 2 0 1 1 2 1 2 0 0 3 2 2 2 2 2 2 4 2 2 2 2 2 3 1 1 4 8 6 5 5 6 2 2 4 4 4 4 4 4 6 5 4 5 5
12 12 11 10 11 12 12 13 12 8 4 6 11 14 16 19 19 14 3 0 1 1 2 1 0 0 0 1 4 3 1 1 3 3 1 1 0 1 0 3 1 2 1 3 0 0 1 1 0 0 1 1 1 1 2 2 2 3 4 3 3 1 2 3 3 3 3 3 1 3 2 2 1 1 1 2 2 5 4 4 3 3 6 8 9 8 8
13 11 10 11 11 12 11 12 12 10 5 2 1 1 3 6 5 3 2 2 1 0 1 1 1 0 2 4 2 2 2 1 1 2 0 2 0 2 0 1 3 1 1 1 2 0 1 0 1 1 1 1 2 1 0 2 4 5 5 4 1 1 1 4 4 5 4 5 4 4 4 3 3 3 4 5 5 4 4 4 5 8 7 7 7 6 4
10 10 10 11 11 11 12 8 3 2 1 1 3 5 2 3 2 5 4 0 1 3 3 1 1 1 0 2 1 2 1 1 1 1 1 2 1 1 1 1 2 1 2 1 2 0 0 2 3 1 1 1 1 0 3 4 4 5 1 1 1 2 0 3 3 1 2 3 4 4 3 4 4 4 2 2 3 3 4 5 5 6 7 7 5 5 5
9 10 11 12 13 8 2 1 1 1 1 0 1 3 1 3 4 2 1 2 2 3 2 1 0 1 2 3 2 1 1 2 1 1 0 1 1 2 2 2 1 1 0 1 2 1 0 0 1 1 1 0 3 3 2 2 2 3 3 4 4 3 1 2 4 2 3 4 5 4 5 4 5 2 2 3 3 4 3 5 6 4 4 5 6 6 5
9 10 11 10 3 1 1 0 0 1 1 3 7 6 2 3 1 1 1 1 1 2 1 1 1 2 2 1 1 4 2 1 3 2 4 2 1 2 2 2 0 1 1 2 1 0 2 0 2 0 0 2 1 2 3 3 3 1 2 1 0 1 3 4 3 4 6 6 6 6 4 4 4 4 4 4 4 3 6 7 5 4 4 4 4 5 4
9 7 2 3 1 1 1 1 0 2 6 8 3 1 1 3 0 2 1 1 1 2 2 2 1 1 1 0 1 2 1 0 1 1 0 1 1 1 1 1 1 0 0 1 1 1 1 2 0 1 3 4 3 3 3 3 5 4 2 3 3 3 3 3 2 4 3 3 4 5 5 6 5 4 5 5 5 5 4 3 3 2 3 3 3 2 3
3 1 1 2 3 1 2 1 3 10 4 1 1 0 1 1 1 1 1 1 1 1 2 1 2 1 1 0 2 2 2 1 2 2 1 1 1 1 1 1 1 1 1 1 2 1 1 2 1 1 3 3 4 2 3 1 1 1 3 3 4 4 4 4 3 6 4 3 1 0 1 1 1 3 3 3 4 3 3 4 4 4 3 3 3 3 3
2 2 1 2 1 2 4 3 8 5 1 1 1 1 0 1 2 2 1 1 1 1 0 1 3 3 4 1 0 0 1 2 1 1 0 1 0 1 1 1 1 1 0 0 3 2 1 1 1 1 3 1 0 1 2 1 3 2 3 4 4 4 5 6 4 3 4 2 2 1 0 0 1 1 1 1 2 3 5 4 3 3 3 4 4 4 4
1 1 2 0 4 2 4 5 4 1 1 0 1 1 1 0 1 1 0 1 1 2 1 1 0 0 0 1 0 0 2 2 1 2 3 1 1 1 1 0 0 0 0 1 3 1 1 1 0 2 3 2 2 1 1 1 3 3 3 3 4 4 4 4 3 2 3 3 2 1 1 1 1 1 2 2 2 2 3 3 4 4 5 5 6 6 5
0 0 1 2 2 3 3 2 2 1 2 0 1 1 0 1 0 1 1 0 0 1 1 1 0 1 2 5 3 2 0 0 1 1 1 1 1 1 1 1 1 1 1 3 0 1 1 1 1 2 4 4 4 2 1 2 2 3 3 3 3 3 4 4 4 1 1 3 2 0 0 0 0 0 1 1 2 3 3 3 4 5 5 5 5 6 5
6 4 2 0 2 1 1 1 2 2 1 1 3 1 1 1 1 0 1 2 1 0 1 0 1 1 0 1 1 0 1 0 0 1 1 0 1 2 2 1 1 0 1 2 1 1 1 1 1 4 4 3 3 3 3 2 1 2 1 1 1 1 1 3 3 2 1 2 3 2 2 2 1 1 1 2 2 3 3 3 4 4 5 5 6 6 6
1 1 1 1 0 1 1 0 1 1 1 1 1 0 1 0 1 2 2 2 1 1 0 1 2 4 2 1 2 0 1 1 2 2 1 0 1 0 1 0 1 3 0 1 1 1 2 2 5 2 2 3 2 2 3 2 2 2 0 0 1 0 0 1 1 3 2 2 2 2 2 3 2 3 2 2 3 3 4 4 4 5 5 4 5 6 6
2 3 3 1 1 1 1 2 2 2 1 1 1 1 1 0 2 0 2 3 1 4 3 0 1 2 2 1 1 1 1 1 1 1 1 0 1 0 1 1 2 1 1 1 1 2 1 2 3 2 3 3 4 4 3 3 3 5 4 1 1 1 3 3 3 2 2 1 2 1 2 2 3 3 3 4 4 4 4 5 5 4 5 5 5 6 6
3 1 1 2 1 2 1 1 0 0 1 1 0 1 1 3 2 4 5 1 3 5 6 5 3 2 3 0 3 1 0 1 1 0 1 1 1 1 2 0 1 0 1 1 0 2 4 4 4 5 5 6 5 5 4 4 3 1 2 4 4 3 3 3 3 3 2 2 2 2 3 3 3 4 5 5 5 5 5 6 5 5 5 5 7 7 7
2 1 2 1 1 2 0 0 0 0 0 0 1 1 2 5 4 5 4 2 5 6 6 2 2 2 5 1 1 1 2 1 1 0 1 1 1 1 1 0 1 0 2 1 2 4 4 6 6 7 5 4 5 4 4 5 4 4 7 5 4 4 3 2 2 2 4 2 3 3 4 4 5 5 5 5 6 6 6 5 7 6 5 7 8 7 7
1 1 1 1 2 1 1 0 1 1 1 0 1 2 3 2 2 5 4 2 5 3 2 1 2 0 2 2 3 1 0 0 1 1 1 1 1 1 1 1 1 1 2 2 4 5 5 5 6 5 4 5 5 6 6 6 6 6 6 5 4 3 3 3 4 5 5 4 4 5 5 5 5 5 5 6 7 7 6 6 7 7 6 6 7 7 8
3 2 1 2 2 1 1 2 3 1 3 4 4 2 3 6 5 6 7 3 4 3 2 1 1 1 1 0 2 1 0 0 1 2 1 1 1 2 1 1 1 1 3 5 5 5 5 6 4 4 4 3 5 6 6 7 7 7 6 5 5 5 4 4 5 5 4 4 5 5 6 6 5 5 6 5 6 9 8 6 6 6 7 7 8 8 9
1 1 2 1 1 1 2 0 2 3 5 6 5 5 5 4 5 6 3 7 6 4 1 0 2 3 0 1 0 2 0 1 1 0 1 1 2 0 1 1 3 3 2 3 4 5 5 5 4 5 4 3 4 4 4 3 2 3 5 5 4 3 4 5 6 5 5 5 6 7 6 5 6 6 7 8 9 7 7 7 7 8 9 8 8 8 9
1 2 2 2 1 1 1 1 1 3 6 5 4 4 4 5 3 5 3 4 7 5 4 1 0 1 1 2 2 0 2 1 2 2 3 3 2 3 3 3 4 6 6 5 5 5 5 5 4 5 4 4 4 3 4 4 3 4 4 4 4 3 4 4 5 6 7 7 6 6 7 7 8 7 8 6 6 7 8 9 9 9 9 9 8 8 9
1 1 1 1 1 1 2 1 1 5 5 5 3 4 1 4 3 5 2 5 4 5 1 1 1 1 2 2 3 2 0 1 0 1 0 3 2 2 3 6 5 6 7 4 3 3 3 4 4 3 3 3 4 5 4 3 4 4 4 4 4 4 5 5 6 7 7 7 7 7 8 8 8 7 6 6 7 7 8 10 10 9 9 8 8 9 9
Wind_Direction
339 337 338 340 341 342 343 345 346 347 346 2 354 324 28 43 129 295 135 169 302 53 33 300 19 221 237 290 283 231 258 238 273 331 275 232 189 209 188 198 177 231 142 201 128 139 123 166 200 197 213 250 216 256 184 133 146 99 172 105 221 147 299 357 293 304 289 311 329 25 98 141 86 18 77 84 197 180 187 182 185 145 44 11 356 240 252
339 339 340 341 343 343 344 347 348 349 358 331 306 37 91 119 101 33 56 193 354 85 8 314 294 272 277 252 261 232 248 254 316 250 282 225 88 211 188 17 135 136 142 101 158 198 83 224 178 330 159 301 260 233 174 153 167 150 215 134 218 130 273 129 330 358 331 346 352 1 334 47 85 263 274 208 93 68 125 97 96 249 217 172 124 247 288
341 340 341 343 345 344 346 348 347 352 353 1 342 75 173 107 313 45 314 218 4 36 188 297 291 299 313 317 316 334 301 219 225 253 300 326 27 60 25 344 136 59 75 95 95 54 156 119 235 105 161 251 314 23 133 186 164 214 202 181 146 89 168 118 142 185 35 334 344 302 311 290 264 158 338 339 263 160 105 177 186 159 278 120 145 252 252
343 342 343 346 347 347 348 347 347 350 353 347 352 257 43 85 113 311 27 343 347 272 181 203 215 307 325 343 303 311 323 317 276 182 255 61 5 82 293 342 54 63 77 49 38 35 33 86 27 70 312 301 301 185 195 138 187 191 151 144 135 143 131 127 157 149 183 207 215 249 88 356 4 299 155 263 268 228 118 109 99 203 205 189 235 183 278
346 344 347 350 349 349 350 349 347 349 351 353 81 359 135 88 90 151 215 349 212 271 298 281 6 273 303 330 323 339 339 262 323 16 65 358 16 47 43 353 58 354 73 108 62 353 24 3 75 9 329 267 254 309 50 34 30 83 92 70 83 77 103 223 139 196 204 194 210 243 181 242 243 339 316 323 245 175 150 154 210 175 107 276 257 198 156
350 349 351 352 351 351 352 350 349 347 352 336 212 19 359 82 268 111 202 134 237 2 320 196 269 281 240 250 353 330 352 5 21 323 48 278 35 85 352 27 40 70 128 121 84 340 39 36 16 317 292 349 345 22 358 59 348 44 54 19 126 140 150 283 134 264 242 216 225 245 219 203 227 313 309 324 298 184 183 225 195 138 166 205 259 157 137
350 349 352 354 353 351 353 352 351 349 347 44 249 83 317 96 113 140 338 145 258 179 275 314 269 285 249 225 358 3 11 7 342 254 324 19 5 58 93 6 2 31 32 100 104 77 69 356 318 124 323 19 347 19 346 328 13 46 38 11 137 96 4 252 138 286 312 356 246 247 143 88 56 7 350 342 349 236 229 264 211 192 192 211 141 152 187
351 353 353 354 353 353 355 355 355 352 345 339 66 63 61 10 45 314 352 75 297 284 323 294 29 39 344 58 344 359 356 353 342 357 41 30 6 8 73 15 5 22 53 71 84 99 146 141 88 257 130 334 67 93 194 280 334 48 57 71 352 103 272 274 73 23 312 308 308 89 10 59 42 354 8 3 351 4 47 351 342 78 47 103 141 98 59
350 354 353 355 353 355 357 358 1 359 349 48 37 55 34 297 300 327 25 34 315 312 11 11 37 36 346 47 326 10 2 359 337 38 60 63 2 3 123 235 356 13 48 60 90 213 169 187 154 216 147 78 232 116 286 171 330 1 2 30 329 65 306 63 72 55 313 318 350 332 31 82 57 18 3 357 355 16 0 10 281 141 156 165 84 67 35
351 354 354 354 356 356 357 1 3 8 354 55 19 29 314 288 275 354 188 86 341 10 320 329 45 17 285 351 310 5 319 300 289 107 36 50 57 352 212 211 90 16 37 23 336 312 235 239 250 220 225 234 264 225 179 155 227 260 116 186 44 99 111 34 36 72 264 264 7 318 20 45 10 353 327 328 327 346 286 282 29 39 182 77 97 188 225
352 355 354 355 357 356 357 360 5 13 12 30 8 2 347 21 347 341 1 70 329 33 359 356 88 174 325 353 309 325 310 347 23 109 343 358 0 360 40 117 107 103 70 292 294 281 272 252 269 96 81 328 275 265 161 248 224 167 164 98 44 91 103 153 189 105 254 299 336 1 54 53 260 233 184 182 63 19 26 18 350 2 57 139 177 242 283
353 355 355 355 357 357 357 358 3 13 23 11 308 282 296 332 308 167 66 100 251 335 99 129 57 297 8 316 320 317 349 357 343 343 74 346 304 337 26 36 80 41 271 313 325 310 264 325 21 25 142 327 124 319 181 351 304 238 190 160 173 153 105 139 173 79 294 324 7 42 46 232 240 286 261 229 213 131 135 88 47 20 30 52 34 360 357
352 355 354 356 358 359 356 356 359 4 13 4 2 283 321 322 307 79 120 114 182 335 40 300 332 292 255 303 339 337 327 300 323 346 75 28 342 8 24 66 21 265 327 316 338 21 73 268 308 246 297 346 338 21 27 359 336 4 312 192 122 154 129 175 53 114 39 42 42 92 211 242 290 291 290 259 153 235 77 23 13 21 9 352 27 319 335
351 354 352 354 359 359 356 355 356 359 5 4 354 320 302 324 34 35 70 89 314 226 233 306 347 353 350 346 343 307 338 7 338 14 31 347 332 314 295 119 289 281 295 319 48 64 33 39 35 11 335 358 1 23 301 316 286 32 351 305 180 145 107 115 122 297 196 173 116 224 293 341 357 1 7 41 348 352 49 89 349 344 340 2 10 358 2
351 352 352 354 357 358 355 354 356 357 360 2 335 327 313 287 250 133 185 92 172 290 170 108 315 293 316 303 19 11 29 332 13 336 278 286 320 247 258 302 312 304 245 152 18 40 114 105 30 22 333 36 18 284 320 25 314 64 10 338 62 111 156 224 129 263 118 131 51 10 21 186 275 240 263 330 231 204 169 102 340 331 0 356 14 16 342
350 351 350 353 355 357 354 354 357 356 358 358 8 347 278 251 216 199 157 135 124 62 289 197 201 225 309 285 322 58 346 13 324 316 342 339 290 328 316 328 317 322 34 66 83 85 47 90 186 86 8 306 228 16 314 335 336 307 70 32 52 29 76 129 141 159 80 52 127 200 156 244 214 276 298 312 322 167 132 70 11 282 342 332 21 25 13
350 350 349 352 354 357 354 357 357 357 355 4 344 324 288 318 19 350 48 26 76 218 266 300 172 116 27 330 4 17 12 35 336 42 345 334 316 301 307 337 308 33 32 77 15 57 34 46 67 128 278 221 28 256 330 31 340 324 334 22 26 32 1 31 58 111 166 135 97 207 208 193 354 255 299 312 9 147 68 55 276 270 331 327 20 27 16
346 348 346 353 355 357 357 357 357 357 354 355 350 293 283 302 294 212 57 104 71 294 276 315 54 65 57 188 206 277 9 24 26 30 209 273 341 357 325 348 348 334 54 91 22 68 60 75 66 109 129 243 215 57 357 287 327 302 314 323 335 354 341 52 176 156 150 103 183 328 304 271 273 307 321 316 201 101 88 189 232 246 341 2 30 33 27
344 347 345 350 354 357 357 357 357 357 357 357 347 337 256 298 332 33 121 60 80 252 268 297 262 186 286 27 208 240 226 144 206 73 326 10 17 288 254 251 30 337 2 116 61 85 111 272 27 124 133 310 24 157 265 32 266 274 26 19 4 1 20 320 68 43 153 181 118 196 243 243 295 322 309 279 119 142 204 235 200 113 65 55 52 32 11
345 345 345 347 351 354 354 354 355 356 358 0 4 249 274 314 323 31 57 109 130 259 288 273 68 231 333 54 4 24 345 21 35 116 129 193 290 2 39 4 322 60 353 49 58 206 100 161 191 85 27 227 267 187 47 284 172 330 339 237 100 313 50 349 54 191 60 41 83 40 151 243 34 327 340 17 81 231 217 142 21 141 100 78 51 49 7
339 343 344 343 346 349 350 351 353 354 357 1 1 1 338 294 22 24 21 146 107 342 308 278 342 244 260 244 218 181 157 206 140 47 241 225 253 81 108 192 261 27 314 72 111 356 134 145 260 189 243 137 282 53 190 314 329 274 186 206 94 189 83 324 291 196 150 83 113 186 213 263 321 19 127 306 236 285 193 116 72 7 55 69 74 45 44
335 339 340 340 342 345 347 347 349 351 353 359 1 52 329 274 322 344 334 138 152 191 225 220 226 252 245 241 239 223 220 229 212 156 153 297 338 62 176 85 143 140 204 117 40 26 8 173 65 56 69 327 12 91 159 64 40 293 325 74 21 325 258 188 131 300 118 196 211 258 266 266 291 94 317 297 359 42 145 99 89 78 32 255 92 68 61
334 335 336 337 338 341 342 342 344 346 348 354 5 76 281 303 319 330 312 197 291 283 292 317 311 275 281 249 233 226 230 236 237 228 158 152 327 10 53 28 340 246 93 116 171 152 178 121 96 157 80 183 132 27 359 122 166 357 5 293 198 294 131 131 93 116 336 76 165 295 340 345 344 21 30 33 34 18 43 80 87 56 65 49 83 67 58
332 331 331 334 335 336 336 336 339 342 343 347 357 327 304 269 280 342 353 71 85 316 313 318 358 13 15 307 301 45 173 191 217 214 164 150 98 307 328 260 205 30 8 269 182 113 200 109 198 176 122 247 85 60 132 349 69 297 42 346 328 276 297 72 80 319 64 328 326 13 345 337 2 5 23 44 42 32 27 59 62 84 74 73 59 89 96
330 327 330 331 333 333 330 331 335 338 337 341 342 271 249 312 290 46 49 28 345 49 153 312 293 217 258 265 268 277 227 208 184 189 184 154 146 150 178 174 168 128 267 215 97 52 34 112 333 80 98 263 130 277 259 75 306 301 23 276 355 335 100 72 99 65 104 190 262 285 318 313 344 35 33 15 360 9 23 37 54 72 80 86 105 117 87
328 323 329 333 332 333 328 327 332 333 334 335 342 324 322 265 285 42 190 312 107 100 85 318 277 321 323 6 50 285 276 290 229 172 192 210 168 163 161 195 47 19 98 74 86 104 128 54 94 129 114 292 71 112 209 210 164 235 140 232 215 275 346 333 237 92 302 320 289 289 311 34 18 16 37 26 10 2 20 23 27 25 51 53 45 46 57
324 320 323 330 330 329 326 325 329 333 331 331 330 290 237 274 265 243 22 236 73 343 30 274 284 301 2 330 274 339 328 8 34 136 108 65 86 63 74 73 66 14 52 31 31 115 62 97 105 241 167 223 189 201 182 354 57 105 289 277 322 51 55 288 70 75 168 171 213 147 126 36 343 13 9 7 353 25 63 40 39 20 19 14 58 47 41
319 317 318 321 327 328 325 323 328 331 332 328 317 287 225 228 301 310 309 137 104 175 210 270 300 291 297 271 272 280 294 289 181 133 96 64 68 75 82 99 101 61 23 76 353 28 46 103 242 236 233 294 61 303 332 156 72 47 326 271 233 131 224 124 163 161 216 242 240 132 132 154 223 275 327 14 10 25 52 40 39 31 35 43 72 65 44
312 312 315 318 320 321 321 323 326 331 334 334 314 331 119 251 269 333 347 47 109 101 112 254 281 323 101 247 327 329 323 76 129 124 110 89 95 90 102 119 120 142 90 73 97 107 125 232 175 141 66 209 105 274 25 342 79 171 240 264 300 251 199 191 207 174 254 264 215 152 132 137 129 33 38 28 6 59 76 61 47 42 31 48 66 58 70
311 312 314 316 315 314 316 319 324 328 345 341 350 61 47 308 210 161 22 41 53 114 71 19 35 239 301 331 288 307 312 10 93 110 105 81 65 78 152 113 89 94 108 143 154 141 228 203 282 283 288 323 129 197 82 181 129 247 267 284 277 307 308 257 201 163 225 272 142 143 115 120 129 96 61 47 24 47 75 55 49 61 45 54 67 55 36
309 314 311 310 310 308 310 314 317 328 1 346 44 74 53 35 300 176 38 24 23 116 135 129 230 291 336 266 183 287 292 310 110 120 132 166 155 165 192 88 70 123 64 358 45 218 134 313 13 293 314 102 120 108 172 128 252 306 288 280 290 321 319 316 319 225 133 123 116 110 106 62 297 41 40 24 11 24 73 59 36 62 83 67 60 60 49
308 310 309 308 305 304 304 306 310 320 323 330 161 166 173 189 246 266 320 5 351 65 68 17 329 6 291 310 292 262 36 302 79 47 30 27 98 37 34 41 197 44 132 139 196 91 235 216 136 285 64 357 63 95 74 87 147 225 283 319 325 354 326 19 90 105 127 52 75 68 47 28 32 91 128 339 344 359 62 62 49 37 65 86 78 61 57
303 308 304 298 297 298 300 298 301 305 264 259 262 274 275 272 272 274 285 301 59 201 127 84 163 249 16 239 318 336 6 42 17 22 240 315 183 78 30 355 33 52 354 91 327 229 219 139 206 30 258 353 103 102 104 170 213 240 235 270 297 337 350 21 29 21 342 330 114 138 181 168 165 30 27 343 1 23 23 30 8 36 50 43 37 29 22
299 298 295 294 293 294 296 299 302 300 307 311 347 317 259 252 266 257 134 103 98 48 65 116 39 36 247 302 93 292 12 104 264 8 35 314 313 71 160 35 356 121 328 50 256 47 324 75 219 236 336 27 40 103 301 263 249 266 298 300 281 79 76 67 46 33 6 10 35 83 121 131 96 56 38 32 23 11 30 32 34 48 38 43 29 19 358
295 296 295 297 294 297 303 314 352 70 178 248 243 252 267 309 166 165 150 105 72 344 21 345 111 53 345 19 31 270 291 79 41 304 91 293 335 159 218 69 323 72 285 101 41 103 273 250 176 99 237 307 45 140 240 248 274 271 269 161 188 158 103 59 15 9 18 20 48 43 47 57 63 54 48 19 22 5 38 26 24 46 41 17 13 7 11
297 297 299 298 301 299 302 116 94 22 27 323 277 303 15 137 134 155 138 115 127 158 103 246 59 201 137 133 138 288 3 68 274 326 226 277 6 31 92 120 89 257 225 67 219 351 206 267 77 281 284 57 226 190 226 209 227 252 218 207 195 151 281 216 165 94 51 57 69 73 71 67 76 43 17 38 32 17 37 46 20 40 56 24 357 347 0
298 302 305 303 318 70 17 225 256 151 203 229 265 298 212 157 38 59 17 31 358 106 141 181 51 238 162 216 271 279 46 87 353 31 346 43 206 294 49 42 127 285 34 1 359 229 262 27 100 108 10 172 252 238 242 237 222 266 311 282 340 26 55 62 83 94 67 44 46 41 46 52 37 25 29 21 7 3 28 22 7 24 23 4 348 353 336
308 320 18 18 40 41 17 315 233 271 292 292 287 12 348 25 24 331 5 28 276 46 340 65 194 252 312 88 37 263 66 289 37 113 332 238 70 346 9 102 227 233 290 269 249 193 59 37 50 153 261 251 246 248 266 254 221 227 225 132 102 110 123 117 89 69 57 28 10 359 5 19 17 2 24 360 2 8 358 336 349 16 16 7 345 331 336
1 327 34 40 94 210 193 238 311 327 305 242 51 70 316 14 58 10 277 262 36 322 277 104 249 190 114 35 277 293 109 132 31 20 104 281 110 299 14 86 290 72 324 14 294 33 294 328 349 23 270 312 0 336 325 320 126 168 142 118 120 126 111 82 86 106 116 132 156 198 126 42 21 342 339 346 338 339 333 345 354 356 352 340 334 339 346
38 37 48 30 70 237 268 301 347 343 48 64 328 104 242 330 94 276 297 34 338 267 80 294 214 169 186 114 132 348 342 49 48 359 139 317 325 141 252 89 272 92 246 75 250 20 128 249 286 53 288 290 260 298 337 352 100 88 105 108 97 88 79 86 73 76 104 104 107 76 148 233 204 219 269 289 317 339 336 335 324 318 337 329 325 342 335
8 59 44 333 259 288 298 309 325 60 64 39 7 5 70 344 272 194 59 49 189 237 196 165 21 35 216 93 101 96 293 84 142 135 115 101 257 82 49 81 250 84 333 264 280 62 70 86 354 181 235 239 228 246 328 75 83 67 43 58 71 73 82 73 62 60 86 76 43 27 355 340 318 255 246 249 256 268 277 282 302 315 323 330 328 314 304
32 196 237 252 276 290 330 353 59 58 359 116 118 283 233 221 321 355 156 116 260 227 288 155 297 197 232 184 200 153 354 198 125 107 94 82 321 99 199 313 4 101 245 239 84 47 72 214 293 287 262 248 253 262 239 118 76 80 64 68 100 113 100 96 99 84 138 143 167 199 252 230 229 253 239 249 259 264 277 293 295 303 295 291 296 302 305
284 293 134 5 3 348 89 52 305 100 103 350 33 36 359 50 227 159 286 257 304 102 261 233 265 166 282 67 43 258 176 260 59 337 71 209 300 53 81 23 51 25 237 316 62 51 28 225 224 251 247 237 237 214 221 211 157 107 78 78 74 41 113 130 141 142 230 179 183 187 198 198 215 231 239 231 235 266 264 254 258 267 275 276 279 284 287
171 128 33 336 44 294 74 355 293 40 348 58 98 131 304 21 321 10 6 292 298 328 279 131 222 128 179 306 149 279 4 3 48 82 50 309 82 13 55 188 220 242 19 35 41 170 227 230 210 221 251 263 267 225 221 202 185 130 145 242 28 38 223 149 96 138 186 222 233 223 222 215 239 264 244 223 216 237 260 264 258 254 263 266 268 266 267
70 4 27 13 31 272 61 305 332 109 170 255 138 161 149 100 276 206 230 250 131 274 298 210 170 105 135 253 54 22 112 181 316 105 238 43 41 6 107 255 252 25 79 261 327 324 349 282 280 283 260 242 236 221 220 208 179 182 193 189 243 201 177 157 188 184 234 254 247 265 270 261 261 265 272 269 259 234 237 266 274 284 284 281 275 276 272
78 152 91 75 344 326 102 209 357 28 297 158 124 198 204 242 207 260 258 271 291 299 312 292 260 124 96 272 141 204 348 92 64 301 149 70 102 264 244 233 72 60 7 40 331 234 222 238 260 258 229 216 211 216 212 228 231 232 139 191 219 211 214 186 200 211 233 250 271 242 259 283 271 274 278 273 277 283 268 263 268 269 280 287 283 281 285
46 6 84 106 96 275 78 113 247 183 150 213 226 205 222 253 239 244 265 280 262 264 271 232 197 203 150 203 62 359 35 45 115 262 73 66 194 253 3 107 271 164 152 252 241 251 266 256 244 246 243 225 229 227 218 223 234 219 220 224 201 218 229 232 240 237 252 250 270 275 269 266 268 262 268 285 280 263 266 273 278 276 270 271 277 283 287
118 248 86 88 238 211 69 253 238 292 279 263 277 268 268 270 353 329 295 249 254 263 214 91 102 36 46 332 82 153 246 357 94 292 170 176 42 41 15 24 294 252 189 166 229 220 234 249 252 267 255 230 209 203 214 214 217 220 224 216 215 232 248 237 247 251 253 252 252 256 260 264 263 268 268 267 276 280 272 272 276 282 279 276 277 281 283
137 117 135 195 197 170 248 302 33 342 284 327 287 289 346 8 336 304 299 301 344 318 232 129 188 99 112 307 83 78 356 342 100 245 35 40 110 209 153 218 189 294 260 185 220 218 223 241 255 271 273 242 228 217 216 210 207 211 215 211 213 219 222 232 241 244 245 240 243 251 264 265 267 271 276 278 280 281 276 270 272 274 270 271 273 276 279
64 354 25 72 7 321 265 330 59 330 315 337 10 343 331 344 330 302 309 339 324 321 327 116 54 94 233 109 32 5 259 253 152 48 64 203 199 191 79 282 230 195 251 243 230 243 247 258 291 301 284 252 246 237 236 252 265 254 244 236 235 225 231 238 256 258 250 246 248 249 256 271 275 268 265 266 266 273 288 290 281 275 274 267 262 265 267
19 127 218 212 161 215 67 359 320 297 317 310 321 302 339 318 286 294 341 335 328 3 48 67 304 96 66 34 63 47 247 182 89 170 163 201 199 137 184 205 237 212 231 234 227 250 268 270 245 255 281 268 251 231 208 223 230 248 261 264 263 266 281 277 268 272 271 263 258 264 267 262 257 257 262 271 282 285 286 285 280 273 269 270 264 258 258
55 55 316 292 232 181 179 192 205 218 236 250 273 248 348 300 280 283 322 347 352 62 355 260 81 46 66 171 216 198 353 43 131 62 13 268 161 154 213 201 224 223 220 238 262 248 251 256 230 223 216 224 217 209 209 211 228 247 254 261 269 278 278 275 270 264 263 269 266 258 259 263 268 271 273 274 275 275 272 272 274 273 268 262 263 258 252